Wind_Speed
20 19 18 17 17 17 16 15 15 15 14 14 14 13 13 12 12 12 12 12 12 13 13 12 11 10 9 8 7 6 6 6 6 6 5 5 5 6 6 8 8 7 6 6 5 6 6 4 6 10 12 9 9 10 11 9 11 9 9 8 6 6
20 19 19 17 17 17 16 16 16 15 15 14 14 13 13 12 13 13 13 12 13 13 12 12 11 10 9 9 8 6 5 5 6 5 5 5 4 5 6 8 8 7 6 6 6 6 6 5 7 9 11 7 6 7 9 8 9 8 9 8 7 7
20 19 18 17 18 17 17 16 16 16 15 15 14 13 13 13 13 14 14 13 13 12 12 11 9 9 9 9 8 6 5 5 5 4 5 5 4 5 6 8 8 7 6 6 6 5 5 6 6 8 10 7 5 7 8 7 7 8 8 8 7 6
20 20 19 18 18 17 17 17 16 17 16 17 16 15 14 13 14 14 14 14 13 11 11 11 10 9 9 9 8 7 6 5 5 4 4 4 4 5 5 7 8 8 7 8 7 6 5 5 6 8 9 7 6 6 6 4 5 8 9 7 6 6
19 20 20 19 18 17 19 17 17 19 18 18 18 17 15 14 14 14 14 15 14 12 11 11 10 10 10 10 9 8 8 7 6 5 5 4 4 5 5 6 7 8 8 8 8 7 5 3 5 7 8 6 5 4 4 4 5 7 8 6 6 6
19 19 19 19 18 18 20 18 18 20 20 20 19 19 17 16 15 15 15 16 15 14 12 10 10 11 12 12 10 10 10 9 8 6 5 5 4 3 4 6 6 7 7 8 7 6 4 4 5 6 4 3 5 4 3 5 6 6 5 5 6 5
20 19 18 19 18 19 20 19 18 19 20 21 21 20 19 17 15 16 17 17 15 14 13 11 11 12 11 12 11 11 12 11 10 9 7 7 6 3 4 5 5 6 6 6 4 4 4 4 7 6 2 3 6 4 2 5 8 5 4 3 4 4
19 19 18 19 19 19 20 20 19 18 18 20 20 20 19 17 14 15 17 17 15 13 14 12 10 11 11 11 11 12 11 11 12 12 10 9 8 5 6 6 5 7 6 4 3 4 5 5 6 7 4 5 7 4 2 5 8 5 4 3 3 3
18 17 17 18 18 18 20 19 17 16 16 18 20 19 18 18 16 15 15 16 14 13 14 12 11 11 10 11 11 11 12 12 13 13 12 10 9 7 8 8 7 7 6 5 4 5 7 5 5 7 6 5 5 4 2 5 7 5 4 3 2 3
18 16 16 17 16 17 20 18 15 15 16 15 16 16 16 17 16 16 15 13 13 12 11 10 10 10 10 12 11 10 10 11 13 13 13 11 10 8 8 10 10 8 7 7 6 6 6 5 4 6 7 6 3 4 4 4 5 4 4 3 4 4
16 16 15 15 14 17 18 15 12 13 14 13 13 13 13 14 13 13 12 12 13 13 11 10 11 11 12 12 12 11 9 9 12 13 13 11 10 8 8 10 12 10 10 9 7 8 8 6 4 5 7 7 3 3 5 5 4 4 5 6 6 5
15 16 15 13 13 14 16 14 12 11 12 12 12 13 11 10 10 10 11 14 16 14 12 12 13 14 14 13 12 12 10 8 12 13 12 11 10 10 9 9 11 11 10 10 8 9 11 9 7 5 6 7 4 3 5 6 6 5 6 8 8 5
16 17 15 12 11 10 11 12 11 12 11 10 12 14 12 10 11 11 11 13 14 14 14 14 15 15 14 13 12 12 12 10 12 12 11 11 11 11 10 8 10 10 10 12 10 9 10 10 9 8 7 7 6 4 4 7 8 6 4 7 8 6
19 19 17 15 13 10 11 12 12 11 10 9 11 14 13 12 12 12 11 10 10 12 14 15 15 14 11 11 11 10 11 12 11 11 11 13 13 12 10 8 9 11 11 12 12 9 10 10 9 8 8 7 6 6 5 6 7 5 3 6 7 6
20 20 18 17 16 12 14 17 14 12 11 9 10 13 14 15 14 11 10 9 8 10 13 14 13 13 11 10 11 9 9 10 9 9 11 13 15 13 12 9 9 12 13 11 11 10 9 10 9 7 7 7 6 7 8 6 5 3 3 4 5 5
18 18 18 18 16 14 16 18 15 13 11 10 10 12 14 16 15 12 9 9 9 10 11 12 11 11 13 13 13 10 9 9 8 9 9 12 15 15 13 11 9 12 14 12 10 10 8 8 8 6 6 5 4 4 6 7 6 5 4 3 3 4
18 18 18 18 16 14 16 16 14 13 12 12 13 14 15 15 15 12 10 10 10 9 8 9 9 9 11 13 12 10 9 9 9 8 8 11 15 15 14 11 9 12 15 14 11 10 8 6 6 6 5 4 3 3 3 4 5 6 6 6 4 3
18 18 19 19 17 15 14 14 13 14 16 16 17 16 16 15 14 13 12 11 11 11 10 10 11 10 10 10 8 7 8 8 9 8 8 12 15 14 12 10 10 12 14 13 12 10 9 6 5 5 4 4 3 2 3 3 3 4 5 5 6 6
20 20 20 20 19 17 16 15 14 16 19 22 21 20 18 17 15 15 14 13 13 13 13 13 12 10 9 8 6 7 8 8 9 9 10 13 14 13 11 9 10 12 13 12 11 10 9 8 6 5 4 3 2 1 2 2 3 3 3 4 4 6
21 21 20 19 18 18 17 16 16 18 23 25 25 24 21 19 17 16 15 14 14 13 12 11 10 8 8 7 6 7 7 7 8 9 11 13 13 13 11 10 10 12 13 12 10 9 10 9 7 5 3 1 0 1 1 2 3 4 4 4 4 4
21 21 20 20 20 19 19 18 18 21 24 26 27 25 22 20 19 17 15 13 12 11 10 9 8 7 7 7 6 7 7 6 6 8 11 12 12 12 11 11 12 11 12 12 11 9 8 7 5 3 1 1 1 1 2 3 3 4 5 5 4 3
20 21 21 20 20 19 20 20 19 21 25 25 24 22 19 19 19 18 16 13 12 10 10 10 8 7 8 7 6 7 7 6 5 6 9 11 12 13 12 11 12 11 10 10 9 7 5 4 4 3 2 1 1 1 2 2 3 4 4 5 5 3
20 21 19 17 17 18 19 19 20 23 25 23 20 18 18 18 18 17 16 14 12 10 10 11 10 9 10 8 6 7 8 6 5 5 7 8 10 13 13 12 11 10 9 8 6 4 4 4 4 4 3 2 1 1 1 1 3 4 2 2 4 3
21 20 18 16 17 18 18 20 23 25 24 22 21 20 20 19 17 17 15 14 14 12 12 13 12 12 11 9 7 9 9 7 5 4 6 7 8 11 13 12 11 10 8 7 6 4 5 5 5 5 3 1 1 2 1 1 2 3 2 2 1 2
22 20 18 18 19 20 23 26 28 27 24 24 24 22 21 20 18 18 17 15 14 14 16 15 13 12 12 12 11 10 10 9 7 5 5 6 7 8 9 9 10 11 9 8 7 6 5 6 6 5 4 3 1 1 1 1 2 2 1 2 2 2
22 19 19 20 20 21 25 28 28 28 26 25 23 21 22 22 20 18 17 16 15 14 15 16 14 13 13 13 13 13 13 12 11 10 8 6 7 8 7 7 7 8 7 7 7 6 6 5 7 7 5 4 2 2 2 0 2 0 1 1 2 3
22 19 19 20 20 20 23 24 23 24 25 24 22 21 22 22 20 19 19 17 16 15 13 14 14 13 14 13 13 13 12 12 13 15 15 13 13 12 9 8 7 6 6 6 7 7 6 5 6 6 6 5 2 2 1 0 1 0 1 1 1 3
23 19 19 19 20 20 21 20 21 22 23 23 22 23 23 21 20 20 20 18 17 15 13 12 11 12 13 13 12 12 12 12 13 14 16 17 16 15 14 13 12 11 10 8 7 8 9 7 4 4 5 6 5 4 3 3 3 2 1 0 2 2
25 20 19 20 20 20 20 20 22 24 24 23 24 24 22 20 20 21 21 19 17 15 14 13 12 12 13 12 13 14 14 12 11 10 12 14 14 14 15 15 14 13 14 13 11 11 12 9 6 4 3 4 5 5 3 1 2 4 2 1 1 3
26 23 20 21 22 20 21 23 24 25 26 27 26 24 21 20 21 21 21 19 17 16 16 15 14 14 13 12 13 15 14 12 10 9 9 10 12 13 13 13 13 13 14 15 14 14 13 12 10 8 6 5 5 4 3 2 0 2 2 1 1 3
24 25 23 23 24 23 24 26 25 27 29 28 27 24 23 22 22 22 20 19 18 18 17 15 14 14 13 12 13 14 15 14 13 12 12 11 12 12 12 12 12 11 11 12 13 13 12 12 12 12 12 10 9 8 7 6 6 6 5 3 1 3
22 24 26 26 25 25 26 25 24 28 29 27 27 26 25 25 24 21 20 20 19 18 17 14 13 13 13 13 14 15 15 14 13 13 13 13 12 12 11 11 10 10 10 10 10 9 9 9 10 12 12 11 10 9 8 8 7 8 8 6 4 3
26 23 25 28 27 26 26 23 24 29 27 27 28 27 27 25 22 21 21 22 20 18 17 15 13 13 14 14 13 14 14 13 13 13 12 12 11 11 10 10 11 11 11 11 10 9 8 9 10 10 10 9 7 6 6 7 6 6 6 5 7 5
24 19 20 25 24 23 25 21 22 29 26 27 29 26 27 25 22 23 23 21 19 17 17 15 13 14 14 13 10 11 12 12 13 13 12 10 10 11 10 11 12 11 12 12 11 11 10 10 10 10 9 8 6 5 6 5 4 4 4 5 7 6
13 8 12 21 20 18 21 19 18 27 28 28 29 26 26 25 23 25 23 20 18 16 15 14 12 12 13 12 10 9 9 12 13 13 12 10 9 10 10 10 10 10 11 11 11 11 11 11 11 11 9 7 6 6 5 5 4 4 4 3 5 5
14 8 10 20 21 18 20 20 18 25 29 28 29 26 25 25 23 24 23 19 18 17 15 14 13 12 12 11 9 8 8 10 11 12 12 11 10 8 8 8 8 9 10 9 8 9 10 10 10 10 9 6 6 7 6 5 5 5 4 4 4 5
22 19 17 20 22 22 23 23 20 23 29 28 28 26 25 25 24 23 23 20 19 19 17 16 14 14 13 11 9 7 8 9 9 11 12 11 10 7 6 7 8 8 8 6 5 6 7 8 8 8 8 5 4 6 5 6 7 8 7 7 6 6
Wind_Direction
161 161 163 161 162 162 161 164 164 165 166 168 167 165 163 160 160 159 158 157 158 157 156 158 162 158 155 157 159 164 164 154 149 141 140 138 136 147 157 166 163 145 131 135 142 144 138 97 108 148 157 134 104 103 85 108 154 152 134 129 118 109
162 164 166 165 167 165 166 169 169 170 173 176 173 170 168 164 163 159 159 161 159 158 158 161 163 162 165 171 169 172 176 161 152 147 142 142 143 152 161 172 169 157 145 143 150 154 153 130 119 144 166 153 107 104 82 106 157 157 137 131 121 115
163 167 168 169 172 170 169 172 175 176 178 180 179 178 175 170 165 160 163 165 163 162 163 163 163 170 176 180 178 179 184 173 158 149 143 140 144 156 166 175 177 177 168 163 171 178 171 163 144 140 159 157 121 113 88 100 153 157 141 130 119 114
167 171 173 175 174 173 171 173 180 183 186 186 185 185 183 177 171 169 169 169 170 167 166 167 169 176 182 188 190 187 188 187 172 160 161 155 147 159 172 179 184 190 192 185 179 181 172 170 168 149 146 137 125 127 96 94 153 154 140 124 117 116
172 174 175 178 176 175 173 173 182 189 193 191 190 191 189 183 178 181 179 176 175 172 172 176 179 179 184 192 196 196 195 196 192 186 191 187 164 167 183 188 189 192 197 197 184 180 181 196 191 163 153 144 138 136 107 129 154 144 129 108 112 120
172 175 176 179 179 177 176 176 184 192 196 196 194 194 194 188 184 190 193 190 183 179 181 185 192 185 185 194 200 204 203 202 206 208 213 214 198 184 195 192 190 190 190 195 187 189 220 241 206 169 163 169 156 146 127 161 165 138 121 95 104 117
173 178 180 184 183 177 176 181 188 195 198 198 197 198 199 191 185 193 201 202 192 183 185 193 199 188 187 197 203 207 207 209 212 212 212 216 223 231 208 185 170 172 178 196 207 225 232 212 189 180 198 197 177 168 118 175 186 157 132 104 103 108
178 182 183 185 185 178 177 184 190 196 200 201 202 203 202 195 189 193 202 208 202 188 184 189 194 190 196 203 207 209 213 218 214 210 208 209 219 215 192 185 170 169 172 198 235 235 201 173 185 191 176 168 183 192 91 160 189 167 148 136 113 117
178 181 183 181 184 179 177 184 192 199 202 204 208 209 206 202 198 195 202 212 214 203 184 178 185 196 210 212 214 214 217 220 213 206 203 204 205 189 191 199 188 179 179 191 219 218 190 168 194 195 166 145 173 199 133 142 170 159 154 163 144 141
176 179 181 177 179 177 176 185 195 202 204 204 205 205 203 203 203 201 202 207 216 217 194 175 179 194 211 211 207 205 209 209 203 199 196 197 193 191 208 206 192 190 196 194 205 209 186 168 197 201 174 144 131 182 174 147 159 166 171 188 184 163
173 175 177 173 174 173 177 183 188 197 202 201 201 200 197 197 198 197 197 200 207 210 197 178 174 188 202 199 192 189 186 183 186 189 188 188 192 203 210 195 188 189 190 190 200 205 195 188 198 201 181 165 143 176 187 175 179 199 208 205 189 175
168 170 166 161 161 163 170 173 176 186 189 193 199 202 201 195 190 189 194 198 200 201 194 186 184 192 198 195 191 187 179 173 180 184 183 185 192 199 192 185 189 186 182 184 191 190 190 196 190 183 188 190 200 208 196 197 206 206 210 208 192 188
163 169 164 156 151 150 161 168 173 176 178 186 190 192 194 188 187 191 190 187 192 195 191 192 195 200 202 198 197 189 182 183 189 192 191 191 192 186 177 185 192 186 186 189 186 170 172 182 173 166 182 200 211 212 185 188 202 201 197 204 202 211
142 154 159 162 158 153 169 177 171 159 164 177 174 179 183 181 185 191 188 181 186 184 182 190 198 204 207 207 206 197 189 191 194 200 198 197 196 184 176 189 189 185 189 192 192 178 169 169 160 161 174 188 199 202 196 175 182 191 176 187 202 224
135 143 145 152 150 143 156 166 163 150 148 153 154 163 170 177 183 189 193 192 182 170 177 185 187 194 198 208 219 216 206 204 198 197 198 198 198 188 184 186 179 179 177 176 183 176 171 171 164 163 164 169 178 193 209 201 185 191 166 161 185 218
140 143 140 144 144 131 133 143 148 144 140 138 143 150 155 164 172 177 183 185 178 170 175 174 166 180 191 199 213 215 214 214 200 196 199 194 192 189 188 188 175 172 166 158 162 158 161 174 173 172 162 161 163 175 206 213 215 216 195 167 154 184
144 144 143 144 143 133 129 134 141 148 152 141 132 132 134 143 150 155 162 168 168 162 164 164 157 169 189 199 206 209 208 207 200 201 203 193 191 189 189 190 172 163 161 154 154 152 154 168 174 182 183 182 181 176 190 198 211 218 214 212 202 188
146 146 143 139 137 136 136 138 141 151 160 148 130 121 119 122 124 126 138 151 158 158 166 176 177 177 190 199 201 204 203 204 207 209 205 195 190 188 189 192 170 158 160 158 158 156 148 146 149 160 173 188 193 194 200 194 200 211 217 222 222 224
146 145 140 138 138 139 142 144 145 141 144 145 137 127 122 119 116 118 126 136 143 149 157 167 176 183 191 193 192 200 195 192 202 209 204 194 189 187 185 188 177 164 162 159 160 157 146 144 144 145 153 171 202 244 249 262 258 241 236 235 228 227
151 147 142 145 144 143 143 143 145 138 133 138 139 133 128 125 124 124 127 128 132 139 147 153 154 154 162 170 176 188 187 181 195 207 200 189 188 190 186 181 178 171 165 158 158 161 156 153 149 144 152 163 281 299 291 303 289 270 262 256 254 245
155 150 146 151 150 150 154 151 148 143 136 135 135 132 128 130 130 129 130 131 134 138 145 148 138 135 136 135 149 162 163 166 187 207 202 194 192 189 185 181 176 173 170 163 161 167 168 167 162 154 179 244 276 276 284 312 318 296 277 262 263 277
157 154 150 154 158 160 162 162 156 147 141 136 135 133 127 130 132 130 130 130 135 138 144 143 133 144 140 117 123 147 151 150 161 190 197 202 204 192 182 181 180 177 174 171 171 178 182 175 168 162 137 59 353 283 286 320 352 333 295 261 255 281
158 156 158 164 172 175 170 165 159 150 144 135 131 129 122 124 128 132 132 129 130 132 139 136 123 132 144 130 114 132 146 149 146 165 179 188 200 194 185 186 188 185 181 183 187 195 204 177 135 130 118 67 357 356 9 4 37 22 345 276 246 244
160 158 167 168 164 168 162 152 147 144 140 131 125 124 122 123 123 127 129 124 118 116 123 128 119 117 128 134 125 120 128 133 129 142 151 149 165 183 190 193 196 198 200 206 210 208 208 185 141 129 126 108 123 81 40 317 38 43 55 85 126 162
164 165 174 168 156 149 144 139 136 134 131 129 130 130 127 124 120 118 121 120 113 110 115 121 123 117 113 119 125 123 118 111 102 116 136 128 136 165 181 189 197 206 212 217 214 194 186 187 168 158 149 133 89 96 194 255 37 42 131 134 127 136
170 173 178 172 164 153 144 140 138 136 136 136 137 136 131 127 124 120 119 120 114 110 113 116 121 121 113 110 112 116 114 105 96 102 119 125 127 139 147 160 177 192 198 201 198 178 171 187 188 186 175 157 127 122 157 88 73 5 262 198 205 205
174 179 180 176 176 166 154 150 148 144 143 144 141 136 133 129 127 123 119 118 113 108 112 116 119 117 115 112 107 109 111 110 105 102 108 114 116 115 115 123 131 138 150 168 182 172 164 178 189 199 205 207 195 139 139 244 162 236 337 292 237 206
172 180 186 183 184 178 167 161 154 148 147 148 142 136 135 130 127 124 120 119 117 115 114 117 121 120 117 112 105 110 116 118 115 109 110 113 114 111 108 112 115 115 114 122 143 137 130 137 145 175 200 211 218 214 224 250 239 210 130 292 294 249
168 177 192 191 188 184 175 165 156 153 150 145 141 139 135 129 128 127 123 123 123 121 116 113 116 122 124 114 101 107 116 119 119 119 118 114 114 114 111 113 116 113 108 108 116 114 110 112 112 119 157 180 187 193 199 203 227 223 192 173 278 290
169 175 195 197 191 185 173 166 162 158 150 143 141 139 135 134 136 134 129 129 126 121 118 114 112 116 124 123 108 104 105 106 107 112 123 122 119 117 111 108 111 114 115 113 116 119 115 110 107 102 105 133 147 144 135 113 98 252 243 220 260 319
175 177 193 198 192 184 173 172 171 161 152 148 146 143 141 143 144 140 135 133 131 126 123 120 118 116 120 124 118 111 105 102 100 96 103 110 109 109 109 107 108 116 124 123 124 128 126 119 111 100 97 106 112 105 96 80 56 50 56 51 25 336
183 180 191 197 192 185 180 182 176 163 157 155 152 149 149 149 147 145 139 138 137 133 130 128 127 124 121 121 120 118 114 110 110 104 100 102 103 106 109 111 113 115 121 129 139 143 137 132 124 109 101 102 105 103 95 85 70 60 59 49 41 23
188 183 188 192 191 188 189 190 178 167 163 161 158 156 154 153 154 152 146 144 145 142 140 139 136 132 127 124 123 125 125 120 117 114 111 111 114 118 117 116 117 115 113 119 130 137 134 135 133 121 112 109 109 108 99 94 87 74 73 69 62 49
184 183 184 186 189 191 196 199 182 172 168 165 164 160 159 159 158 157 154 152 153 149 147 148 142 136 130 126 127 129 131 131 127 123 119 116 114 115 116 116 115 112 109 112 116 119 120 126 132 128 120 116 116 115 107 102 90 73 76 81 73 61
164 170 177 181 183 184 197 214 196 178 174 171 168 164 162 163 160 162 162 158 158 153 148 150 146 138 132 133 138 137 135 137 137 133 128 124 123 122 119 116 116 114 109 106 108 111 113 116 124 125 115 106 101 103 108 100 74 54 58 65 68 60
160 171 173 177 176 171 193 226 220 186 178 175 171 166 165 166 163 166 168 164 164 161 153 152 149 142 141 148 154 152 148 145 143 144 141 137 135 137 137 130 125 118 108 99 96 100 103 105 114 117 107 93 81 81 89 83 55 43 57 62 62 52
174 179 174 176 176 172 189 223 229 193 181 179 173 169 169 171 170 169 170 170 168 166 161 160 157 152 155 165 168 162 160 155 149 149 149 150 151 151 151 139 129 119 110 106 100 93 89 92 103 109 105 98 78 61 61 66 57 54 65 67 67 61
Height
794 796 798 800 803 804 806 808 810 811 812 813 813 814 815 816 817 818 819 819 820 820 821 822 823 824 824 825 826 827 827 827 828 828 829 829 830 830 831 832 832 833 833 834 834 834 835 835 835 835 835 835 836 836 837 839 838 838 837 837 838 838
795 797 798 800 802 804 806 808 810 811 812 813 813 815 815 816 817 818 819 819 820 821 821 822 823 824 824 825 826 827 828 828 828 829 829 829 830 830 831 832 832 833 833 834 834 834 835 835 836 836 836 836 837 837 838 839 839 839 838 838 838 838
795 797 798 800 802 804 806 808 810 811 812 813 813 814 815 816 817 818 819 820 821 821 821 822 823 824 825 825 826 827 828 828 829 829 829 829 830 830 830 831 832 833 833 834 834 835 835 835 836 836 837 837 837 837 838 839 839 839 839 839 839 839
795 797 798 800 802 804 806 808 809 810 811 812 813 814 815 816 817 818 819 820 820 821 821 821 822 824 824 825 826 827 828 828 829 829 829 829 829 829 830 831 832 832 833 833 834 834 835 835 835 836 837 838 838 838 838 839 839 839 840 840 840 839
796 797 799 800 802 804 805 807 808 808 810 811 812 813 814 816 817 817 818 819 819 820 820 821 822 823 824 825 826 827 828 828 828 828 829 829 829 829 830 831 831 832 832 833 833 834 835 835 835 836 837 838 839 838 839 839 839 840 840 840 840 840
796 797 799 800 802 804 805 806 807 807 809 810 811 812 814 815 816 817 817 817 818 819 820 820 821 822 823 825 826 827 827 828 828 828 828 829 829 829 829 830 831 832 832 833 833 834 834 834 835 836 836 838 838 839 839 839 839 840 840 841 841 841
795 797 798 800 802 803 804 805 806 807 808 809 810 812 813 815 816 816 816 816 817 819 819 820 820 821 822 825 826 827 827 827 827 827 827 828 828 829 829 830 831 831 832 832 833 834 834 834 835 836 836 837 838 839 839 839 839 839 840 840 841 841
796 798 799 801 802 803 805 805 806 807 807 809 810 811 813 815 816 816 816 816 817 819 819 820 821 821 823 825 827 827 827 827 826 827 827 827 828 828 829 829 830 831 831 832 832 833 834 835 835 836 836 837 837 839 839 839 839 839 840 840 841 841
796 798 799 801 803 804 804 805 806 806 807 808 810 811 813 814 815 816 816 816 817 818 820 821 822 823 825 827 827 827 827 826 826 826 827 827 827 827 828 829 830 830 831 831 832 833 834 834 835 835 836 836 837 838 838 839 839 839 839 840 841 841
796 798 800 801 802 803 804 805 806 806 807 808 809 811 812 813 815 815 816 818 817 817 819 821 823 824 825 825 825 826 826 826 826 826 826 827 827 827 828 828 829 829 830 831 832 832 833 834 834 835 835 835 836 837 838 838 838 839 839 840 840 841
797 798 799 801 802 803 804 805 805 805 806 807 808 810 811 813 815 815 817 818 818 817 819 821 822 821 821 822 823 824 824 825 825 826 826 826 827 827 828 828 828 829 829 830 832 832 832 833 834 835 835 835 836 836 837 838 838 838 839 840 840 840
796 798 800 801 802 803 804 805 805 805 806 807 808 809 810 812 814 814 815 816 817 818 820 821 821 820 819 820 822 822 824 824 825 825 826 826 827 827 828 828 828 828 829 830 831 831 832 832 833 834 834 834 835 835 836 837 838 838 838 839 839 839
796 798 800 801 802 803 804 805 806 806 806 807 808 809 810 812 812 813 814 815 817 819 820 820 820 818 818 819 821 822 823 823 824 824 825 825 826 827 827 827 828 828 828 829 829 830 831 832 832 833 833 833 834 834 835 836 837 837 838 838 838 839
796 798 800 802 802 803 804 805 806 806 807 807 808 809 811 812 812 812 813 814 816 818 819 819 819 818 818 818 819 821 821 822 823 823 823 824 825 826 826 826 826 827 827 828 828 829 830 830 831 832 832 833 833 834 834 835 836 836 837 837 838 838
796 798 800 801 802 802 803 804 806 806 807 807 808 809 810 811 811 811 812 812 813 816 817 818 820 820 820 819 819 820 820 821 822 822 822 823 824 825 825 825 825 826 826 827 828 829 829 830 831 832 832 832 833 833 833 834 835 836 836 837 838 838
796 798 799 801 802 803 803 804 805 806 807 807 808 808 809 810 811 811 811 811 812 813 815 818 820 821 821 820 820 820 820 820 821 822 822 822 823 824 824 825 825 825 826 827 828 828 829 830 831 832 832 832 833 833 833 833 834 835 835 836 837 838
796 798 799 801 802 803 804 804 805 805 806 807 808 808 808 809 809 810 811 811 812 812 814 817 818 819 820 820 819 819 819 820 820 821 821 822 822 823 823 824 824 825 825 826 827 828 829 831 831 832 832 832 832 833 833 833 834 834 835 835 836 837
797 799 800 801 802 803 804 805 805 806 806 807 808 807 807 808 808 809 810 811 811 812 815 817 818 819 819 819 818 818 819 819 820 820 820 820 821 822 823 823 824 825 825 825 827 828 829 830 831 831 831 832 832 832 833 833 833 833 834 834 835 836
797 799 800 801 803 804 805 806 806 807 806 806 807 807 807 808 808 809 810 811 813 814 817 818 819 819 819 818 817 818 818 819 819 819 819 820 821 821 822 823 823 824 825 825 827 828 829 830 831 831 831 832 832 832 833 833 833 833 833 834 834 835
798 799 800 801 803 805 806 806 807 807 807 807 807 808 808 809 809 810 811 812 814 815 816 817 818 818 817 817 817 817 818 818 819 819 820 820 821 821 822 823 823 824 825 826 827 828 829 830 830 831 831 832 832 833 833 833 833 833 833 833 834 834
797 799 799 801 803 804 806 807 807 807 807 807 808 808 809 809 810 811 812 813 813 814 815 815 816 816 816 816 816 817 817 818 818 818 819 820 821 821 822 823 824 824 825 826 827 828 829 830 830 831 831 831 832 832 833 833 833 833 833 833 833 834
796 798 799 801 803 804 806 807 807 807 807 808 808 808 809 809 810 811 812 813 813 814 814 814 815 815 815 816 816 816 817 818 818 818 819 820 820 821 822 823 824 825 826 826 828 829 829 830 830 831 831 831 832 832 832 832 833 833 832 832 833 833
796 797 800 802 803 805 806 807 807 807 807 808 808 808 809 810 810 810 811 812 813 813 814 814 815 815 815 816 816 816 817 818 818 818 819 819 819 820 822 823 824 825 826 827 828 829 829 829 830 831 832 832 833 833 833 833 833 833 833 832 833 833
795 797 800 802 803 804 806 807 808 808 808 808 809 810 809 810 810 810 811 812 813 813 814 814 815 815 816 816 817 817 817 818 818 818 819 819 819 820 821 823 824 825 826 826 827 828 829 829 829 830 832 833 833 834 834 834 833 833 833 832 832 832
795 797 800 802 803 804 805 807 808 809 810 810 810 810 810 810 811 811 811 812 813 813 813 814 814 815 816 816 817 817 818 818 819 819 819 819 819 820 821 823 824 825 825 826 826 827 828 829 829 830 831 832 833 834 835 834 833 833 833 832 832 832
795 798 801 802 803 804 805 806 807 808 809 810 811 811 810 809 810 811 811 812 812 813 813 813 814 815 815 816 816 817 818 819 819 818 819 819 820 821 822 823 824 824 825 825 826 826 827 828 829 830 831 831 832 833 833 833 834 834 833 832 832 832
795 799 801 802 803 804 805 806 806 807 808 809 810 810 810 810 810 810 811 811 812 813 813 813 814 815 815 816 816 817 818 819 819 819 819 820 820 821 822 823 824 824 824 825 825 826 826 828 829 830 831 831 831 832 832 833 834 834 834 833 832 832
793 798 801 803 804 804 805 805 806 807 809 809 809 810 811 811 811 811 811 812 812 813 813 814 815 815 816 816 817 817 818 819 819 820 821 821 821 822 823 823 824 824 824 824 825 825 826 827 828 829 830 831 831 832 832 833 833 833 834 834 833 832
789 796 801 803 804 804 805 805 806 807 808 810 810 811 811 811 812 811 811 812 812 813 814 814 815 816 817 818 818 818 819 820 820 821 822 822 823 823 824 824 824 825 824 825 825 826 826 827 828 829 829 830 831 832 832 833 833 833 833 834 833 832
785 792 800 803 804 805 805 805 806 806 807 808 810 811 812 812 813 812 812 812 812 813 814 815 816 817 818 818 819 820 820 821 822 822 822 823 824 824 825 825 825 826 826 826 826 827 827 828 829 829 829 830 830 831 832 833 833 833 833 833 833 833
785 789 797 802 803 805 805 805 805 805 805 806 808 810 812 812 813 812 812 812 813 814 815 816 817 818 819 819 820 821 822 823 823 823 824 824 825 826 826 826 826 827 827 828 828 828 829 829 830 830 830 830 831 831 832 833 833 833 833 833 834 834
785 786 793 800 803 805 806 805 805 804 804 805 806 808 810 812 812 812 812 813 813 814 815 817 818 818 820 821 821 822 823 824 824 825 825 826 826 827 827 827 828 828 829 829 829 830 830 830 831 831 831 831 831 832 832 833 833 833 833 833 834 834
784 785 790 797 802 805 806 807 806 804 803 804 805 807 809 810 811 812 812 813 814 815 816 817 818 819 820 821 822 823 824 825 825 826 826 827 827 828 828 828 829 829 829 830 830 830 831 831 831 831 832 832 832 832 833 833 833 833 833 833 833 834
786 788 791 796 802 805 807 808 807 805 803 803 804 805 807 809 810 811 812 813 814 815 816 817 819 820 821 822 823 824 825 826 826 827 828 828 828 829 829 830 830 830 830 831 831 831 831 831 832 832 832 833 833 833 833 833 833 833 833 833 833 834
789 793 794 797 800 804 807 810 809 806 803 803 803 804 806 808 809 810 811 813 814 815 817 818 819 821 822 823 824 825 826 826 827 828 829 829 830 830 831 831 831 831 832 832 832 832 832 832 832 833 833 833 834 834 834 834 834 834 834 834 834 834
789 793 796 797 797 800 807 810 810 807 804 802 803 803 805 807 808 809 810 811 813 815 816 818 820 821 823 824 825 825 826 827 828 828 829 830 831 831 832 832 833 833 833 833 833 833 833 833 833 834 834 834 834 834 834 834 835 835 835 835 835 835
787 790 795 798 796 797 804 808 808 807 804 802 803 803 804 806 807 808 809 810 812 814 815 817 819 821 822 823 825 826 827 827 828 829 830 831 831 832 833 833 834 834 834 834 835 835 835 835 835 835 835 835 835 835 835 835 835 835 835 835 836 836